sat.trackr.live / text

‹ back to catalog

STARLINK-3244

NORAD 49741 · 2021-115T

PAYLOAD ACTIVE UNKNOWN

§ Identity

Operator
Country
US
Launch date
2021-12-02
Launch site
AFETR
Launch vehicle
Mass (kg)
RCS (m²)

Purposes: comms

External: N2YO · Heavens-Above · Gunter

§ Orbital elements

Epoch: 2026-05-25T01:23:52.327392Z

Period
95.44 min
Inclination
53.2150°
Eccentricity
0.0001108
Mean motion
15.08839424 rev/d
Perigee alt
539.0 km
Apogee alt
540.5 km
Semi-major
6,917.9 km
B*
6.4464e-5
RAAN
166.2973°
Arg perigee
69.7807°
Mean anomaly
290.3305°
Rev number
24,706

§ Raw data

STARLINK-32441 49741U 21115T   26145.05824453  .00000738  00000+0  64464-4 0  99992 49741  53.2150 166.2973 0001108  69.7807 290.3305 15.08839424247069

JSON: /api/v1/satellites/49741 · /tle

For live sub-satellite position, see the globe view (requires WebGL).

§ Visibility from observer

Set your observer location to see the next 7 days of passes ≥ 10°. The values pass through the URL so the page stays shareable.

No JS? Fill the form by hand. The geolocation button needs JavaScript.